Haleyville, AL

2:59 AM CDT on March 23, 2017 (GMT -0500)
Haleyville

Weather History for K1M4 - April, 2014

Change the Weather History Date:

Tuesday, April 29, 2014

  Actual Average (KJFX) Record (KJFX)
Temperature  
Mean Temperature 68 °F -  
Max Temperature 77 °F 76 °F 88 °F (1970)
Min Temperature 60 °F 49 °F 34 °F (1992)
Cooling Degree Days 4    
Growing Degree Days 18 (Base 50)    
Moisture  
Dew Point 62 °F    
Average Humidity 94    
Maximum Humidity 100    
Minimum Humidity 56    
Precipitation  
Precipitation 0.03 in - - ()
Sea Level Pressure  
Sea Level Pressure 29.76 in    
Wind  
Wind Speed 1 mph (South)    
Max Wind Speed 13 mph    
Max Gust Speed 18 mph    
Visibility 5 miles    
Events Fog , Rain , Thunderstorm    
Averages and records for this station are not official NWS values.
T = Trace of Precipitation, MM = Missing Value Source: NWS Daily Summary

Daily Weather History Graph

Daily Weather History Graph

Search for Another Location

Airport or City:

Trip Planner

Search our weather history database for the weather conditions in past years. The results will help you decide how hot, cold, wet, or windy it might be!

Date:

Astronomy

Apr. 29, 2014 Rise Set
Actual Time 6:02 AM CDT 7:33 PM CDT
Civil Twilight 5:36 AM CDT 7:59 PM CDT
Nautical Twilight 5:04 AM CDT 8:31 PM CDT
Astronomical Twilight 4:30 AM CDT 9:05 PM CDT
Moon 6:20 AM CDT (4/29) 8:12 PM CDT (4/29)
Length of Visible Light 14h 23m
Length of Day
13h 30m
New Moon, 0% of the Moon is Illuminated
Apr 29
New Moon
May 6
First Quarter
May 14
Full
May 21
Last Quarter
May 28
New

Hourly Weather History & Observations

Time (CDT) Temp. Dew Point Humidity Pressure Visibility Wind Dir Wind Speed Gust Speed Precip Events Conditions
12:41 AM 62.6 °F 62.6 °F 100% 29.69 in 6.0 mi Calm Calm - N/A   Mostly Cloudy
12:56 AM 63.0 °F 63.0 °F 100% 29.74 in 9.0 mi Calm Calm - N/A   Mostly Cloudy
1:27 AM 62.6 °F 62.6 °F 100% 29.70 in 1.5 mi Calm Calm - N/A   Mostly Cloudy
1:32 AM 62.6 °F 62.6 °F 100% 29.70 in 0.5 mi Calm Calm - N/A Fog Fog
1:41 AM 62.6 °F 62.6 °F 100% 29.70 in 0.8 mi Calm Calm - N/A   Clear
1:56 AM 61.9 °F 61.9 °F 100% 29.74 in 2.5 mi Calm Calm - N/A   Clear
2:03 AM 62.6 °F 62.6 °F 100% 29.70 in 4.0 mi SSW 4.6 mph - N/A   Clear
2:17 AM 62.6 °F 62.6 °F 100% 29.69 in 4.0 mi Calm Calm - N/A   Scattered Clouds
2:26 AM 62.6 °F 62.6 °F 100% 29.69 in 3.0 mi Calm Calm - N/A   Mostly Cloudy
2:40 AM 62.6 °F 62.6 °F 100% 29.69 in 5.0 mi Calm Calm - N/A   Scattered Clouds
2:46 AM 60.8 °F 60.8 °F 100% 29.69 in 1.5 mi Calm Calm - N/A   Mostly Cloudy
2:48 AM 60.8 °F 60.8 °F 100% 29.69 in 1.0 mi Calm Calm - N/A   Mist
2:56 AM 61.0 °F 61.0 °F 100% 29.73 in 0.2 mi Calm Calm - N/A Fog Fog
3:06 AM 60.8 °F 60.8 °F 100% 29.69 in 0.8 mi Calm Calm - N/A   Clear
3:08 AM 60.8 °F 60.8 °F 100% 29.69 in 1.2 mi Calm Calm - N/A   Clear
3:10 AM 60.8 °F 60.8 °F 100% 29.69 in 2.0 mi Calm Calm - N/A   Clear
3:17 AM 60.8 °F 60.8 °F 100% 29.72 in 5.0 mi Calm Calm - N/A   Clear
3:31 AM 62.6 °F 62.6 °F 100% 29.71 in 7.0 mi Calm Calm - N/A   Scattered Clouds
3:39 AM 62.6 °F 62.6 °F 100% 29.70 in 2.0 mi Calm Calm - N/A   Mostly Cloudy
3:41 AM 62.6 °F 62.6 °F 100% 29.69 in 1.0 mi Calm Calm - N/A   Mostly Cloudy
3:44 AM 62.6 °F 62.6 °F 100% 29.69 in 0.5 mi Calm Calm - N/A Fog Fog
4:56 AM 61.9 °F 61.9 °F 100% 29.77 in 0.2 mi Calm Calm - N/A Fog Fog
5:28 AM 62.6 °F 62.6 °F 100% 29.72 in 0.8 mi Calm Calm - N/A   Overcast
5:31 AM 62.6 °F 62.6 °F 100% 29.72 in 1.2 mi Calm Calm - N/A   Overcast
5:34 AM 62.6 °F 62.6 °F 100% 29.72 in 2.0 mi Calm Calm - N/A   Overcast
5:56 AM 61.9 °F 61.9 °F 100% 29.76 in 2.5 mi Calm Calm - N/A   Overcast
6:05 AM 62.6 °F 62.6 °F 100% 29.72 in 4.0 mi Calm Calm - N/A   Overcast
7:04 AM 62.6 °F 62.6 °F 100% 29.75 in 1.2 mi ESE 5.8 mph - N/A   Overcast
7:15 AM 62.6 °F 62.6 °F 100% 29.75 in 1.0 mi SE 5.8 mph - N/A   Overcast
7:30 AM 62.6 °F 62.6 °F 100% 29.75 in 1.5 mi SE 3.5 mph - N/A   Overcast
7:41 AM 62.6 °F 62.6 °F 100% 29.76 in 3.0 mi Calm Calm - N/A   Overcast
7:56 AM 61.9 °F 61.9 °F 100% 29.81 in 4.0 mi Calm Calm - N/A   Overcast
8:21 AM 62.6 °F 62.6 °F 100% 29.76 in 8.0 mi Calm Calm - N/A   Overcast
8:56 AM 63.0 °F 63.0 °F 100% 29.79 in 9.0 mi Calm Calm - N/A   Overcast
9:56 AM 66.9 °F 63.9 °F 90% 29.81 in 10.0 mi South 8.1 mph - N/A   Mostly Cloudy
10:23 AM 68.0 °F 62.6 °F 83% 29.78 in 10.0 mi South 6.9 mph - N/A   Mostly Cloudy
10:56 AM 70.0 °F 63.0 °F 78% 29.83 in 10.0 mi South 10.4 mph 16.1 mph N/A   Scattered Clouds
11:56 AM 73.9 °F 63.0 °F 68% 29.83 in 10.0 mi South 6.9 mph - N/A   Partly Cloudy
12:56 PM 75.9 °F 61.0 °F 60% 29.82 in 10.0 mi SW 8.1 mph - N/A   Clear
1:56 PM 77.9 °F 61.0 °F 56% 29.80 in 10.0 mi Calm Calm - N/A   Clear
2:56 PM 77.9 °F 61.0 °F 56% 29.81 in 10.0 mi South 12.7 mph 18.4 mph N/A   Scattered Clouds
3:56 PM 75.9 °F 61.0 °F 60% 29.79 in 10.0 mi South 5.8 mph - N/A   Clear
4:56 PM 73.9 °F 63.9 °F 71% 29.80 in 10.0 mi Calm Calm - N/A   Partly Cloudy
5:56 PM 72.0 °F 63.9 °F 76% 29.79 in 9.0 mi SSE 4.6 mph - 0.00 in Rain Light Rain
6:56 PM 66.9 °F 61.0 °F 81% 29.83 in 10.0 mi SSW 6.9 mph - 0.00 in Thunderstorm Thunderstorm
7:07 PM 66.2 °F 62.6 °F 88% 29.79 in 10.0 mi Variable 3.5 mph - N/A   Mostly Cloudy
7:17 PM 66.2 °F 60.8 °F 83% 29.78 in 7.0 mi Calm Calm - 0.00 in Rain Rain
7:56 PM 64.9 °F 63.0 °F 93% 29.85 in 10.0 mi Calm Calm - 0.00 in   Overcast
8:03 PM 64.4 °F 64.4 °F 100% 29.83 in 6.0 mi Calm Calm - 0.01 in Rain Rain
8:36 PM 64.4 °F 64.4 °F 100% 29.79 in 8.0 mi Calm Calm - 0.03 in   Scattered Clouds
8:56 PM 63.0 °F 63.0 °F 100% 29.83 in 6.0 mi Calm Calm - 0.03 in   Clear
9:56 PM 63.0 °F 63.0 °F 100% 29.87 in 9.0 mi South 6.9 mph - N/A   Mostly Cloudy
10:04 PM 62.6 °F 62.6 °F 100% 29.83 in 9.0 mi South 8.1 mph - N/A   Overcast
10:26 PM 62.6 °F 62.6 °F 100% 29.82 in 10.0 mi South 4.6 mph - N/A   Overcast
10:56 PM 63.0 °F 63.0 °F 100% 29.85 in 9.0 mi Calm Calm - N/A   Overcast
11:11 PM 62.6 °F 62.6 °F 100% 29.81 in 9.0 mi Calm Calm - N/A Thunderstorm Thunderstorm
11:26 PM 62.6 °F 62.6 °F 100% 29.80 in 8.0 mi Calm Calm - N/A   Overcast
11:56 PM 63.0 °F 63.0 °F 100% 29.83 in 7.0 mi Calm Calm - 0.00 in   Overcast